{"data":{"norad_id":55765,"epoch":"2026-05-25T02:13:39.969408Z","epoch_age_seconds":63657,"freshness":"FRESH","line1":"1 55765U 23028AA  26145.09282372 -.00000045  00000+0  40195-5 0  9997","line2":"2 55765  69.9999  31.9777 0002572 267.2410  92.8454 14.98333529177973","mean_motion":14.98333529,"eccentricity":0.0002572,"inclination_deg":69.9999,"raan_deg":31.9777,"arg_perigee_deg":267.241,"mean_anomaly_deg":92.8454,"bstar":4.0195e-6,"rev_number":17797,"period_min":96.106772766479,"perigee_km":570.25739101975,"apogee_km":573.83256462914,"semimajor_km":6950.1819778244,"source":"CELESTRAK","updated_at":"2026-05-25T13:38:17.882513Z"}}